Location: Saint-Restitut
(44.3351°N, 4.7915°E)
Time: 07:30:45
(UTC+00:00)

RESURS DK-1 - Pass Details

Date: 03 February 2023
Orbit: 549 x 558 km, 69.9° (Epoch: 26 March)

Event Time Altitude Azimuth Distance (km) Brightness Sun altitude
Rises 18:14:01 0° 336° (NNW) 2,739 6.1 -14.8°
Reaches altitude 10° 18:16:15 10° 341° (NNW) 1,842 5.1 -15.2°
Maximum altitude 18:20:18 57° 60° (ENE) 661 2.4 -15.9°
Enters shadow 18:23:17 17° 136° (SE) 1,428 4.1 -16.5°
